Voltar ao catálogo

ASTRA 2C

AtivoComunicaçõesGEO
NORAD 26853·PAYLOAD·🇱🇺 Luxembourg

Lançado Jun 16, 2001 de Baikonur Cosmodrome

Loading…

TLE

AtualizadoSource: Space-Track

Época: Sep 14, 2026, 15:42 UTC

1 26853U 01025A   26257.65484764 -.00000168  00000-0  00000-0 0  9994
2 26853   8.4059  63.1749 0002172 345.5063   0.4983  0.99040978 45830

Acompanhe ASTRA 2C em tempo real com AllMySat

Download on the App Store